Weather History for Dayton, OH

Change the Weather History Date:

Saturday, October 5, 2013

  Actual Average Record
Temperature  
Mean Temperature 73 °F 58 °F  
Max Temperature 78 °F 68 °F 93 °F (1900)
Min Temperature 67 °F 47 °F 28 °F (1901)
Degree Days  
Heating Degree Days 0 8  
Month to date heating degree days 0 38  
Since 1 July heating degree days 67 128  
Cooling Degree Days 8 1  
Month to date cooling degree days 35 5  
Year to date cooling degree days 1062 886  
Growing Degree Days 22 (Base 50)    
Moisture  
Dew Point 68 °F    
Average Humidity 90    
Maximum Humidity 97    
Minimum Humidity 82    
Precipitation  
Precipitation 0.87 in 0.10 in 3.82 in (1910)
Month to date precipitation 1.16 0.48  
Year to date precipitation 25.77 32.09  
Snow  
Snow 0.00 in 0.00 in - ()
Month to date snowfall 0.0 0.0  
Since 1 July snowfall 0.0 0.0  
Since 1 September snowfall 0.0 0.0  
Snow Depth 0.00 in    
Sea Level Pressure  
Sea Level Pressure 30.02 in    
Wind  
Wind Speed 8 mph (SSW)    
Max Wind Speed 21 mph    
Max Gust Speed 23 mph    
Visibility 7 miles    
Events Rain , Thunderstorm    
T = Trace of Precipitation, MM = Missing Value Source: NWS Daily Summary

Daily Weather History Graph

Daily Weather History Graph

Search for Another Location

Airport:

Trip Planner

Search our weather history database for the weather conditions in past years. The results will help you decide how hot, cold, wet, or windy it might be!

Date:

Astronomy

Oct. 05, 2013 Rise Set
Actual Time 7:37 AM EDT 7:12 PM EDT
Civil Twilight 7:10 AM EDT 7:39 PM EDT
Nautical Twilight 6:38 AM EDT 8:10 PM EDT
Astronomical Twilight 6:07 AM EDT 8:42 PM EDT
Moon 8:15 AM EDT (10/5) 7:30 PM EDT (10/5)
Length of Visible Light 12h 29m
Length of Day
11h 35m
New Moon, 0% of the Moon is Illuminated
Oct 5
New Moon
Oct 11
First Quarter
Oct 18
Full
Oct 26
Last Quarter
Nov 3
New

Hourly Weather History & Observations

Time (EDT) Temp. Dew Point Humidity Pressure Visibility Wind Dir Wind Speed Gust Speed Precip Events Conditions
12:56 AM 72.0 °F 66.0 °F 81% 30.05 in 10.0 mi SSW 8.1 mph - N/A   Mostly Cloudy
1:56 AM 71.1 °F 66.0 °F 84% 30.06 in 10.0 mi South 4.6 mph - N/A   Mostly Cloudy
2:56 AM 71.1 °F 66.0 °F 84% 30.06 in 10.0 mi SSW 4.6 mph - N/A   Scattered Clouds
3:56 AM 69.1 °F 66.0 °F 90% 30.05 in 10.0 mi SSE 5.8 mph - N/A   Mostly Cloudy
4:56 AM 69.1 °F 66.0 °F 90% 30.05 in 9.0 mi South 4.6 mph - N/A   Mostly Cloudy
5:56 AM 68.0 °F 66.0 °F 93% 30.05 in 7.0 mi SSE 5.8 mph - N/A   Mostly Cloudy
6:56 AM 68.0 °F 66.0 °F 93% 30.05 in 6.0 mi SSE 4.6 mph - N/A   Mostly Cloudy
7:56 AM 68.0 °F 66.0 °F 93% 30.05 in 5.0 mi SSE 5.8 mph - N/A   Mostly Cloudy
8:56 AM 70.0 °F 66.9 °F 90% 30.06 in 7.0 mi SSW 6.9 mph - 0.00 in Rain Light Rain
9:05 AM 69.8 °F 66.2 °F 88% 30.08 in 1.5 mi SW 10.4 mph - 0.01 in Rain Heavy Rain
9:12 AM 69.8 °F 66.2 °F 88% 30.07 in 4.0 mi South 5.8 mph - 0.18 in Rain Light Rain
9:50 AM 69.8 °F 68.0 °F 94% 30.07 in 3.0 mi South 5.8 mph - 0.20 in Rain Light Rain
9:56 AM 70.0 °F 68.0 °F 93% 30.05 in 7.0 mi SSW 4.6 mph - 0.20 in Rain Light Rain
10:56 AM 72.0 °F 69.1 °F 91% 30.06 in 6.0 mi SSW 8.1 mph - N/A   Overcast
11:56 AM 73.0 °F 70.0 °F 90% 30.04 in 7.0 mi SW 5.8 mph - N/A   Overcast
12:56 PM 75.9 °F 71.1 °F 85% 30.03 in 8.0 mi SW 6.9 mph - N/A   Mostly Cloudy
1:56 PM 77.0 °F 71.1 °F 82% 30.01 in 9.0 mi SW 5.8 mph - N/A   Overcast
2:18 PM 77.0 °F 69.8 °F 78% 30.03 in 10.0 mi South 5.8 mph - N/A   Overcast
2:49 PM 73.4 °F 71.6 °F 94% 30.02 in 1.0 mi West 9.2 mph - 0.06 in Rain , Thunderstorm Heavy Thunderstorms and Rain
2:56 PM 72.0 °F 71.1 °F 97% 29.99 in 1.0 mi NW 12.7 mph - 0.18 in Rain , Thunderstorm Heavy Thunderstorms and Rain
3:16 PM 69.8 °F 68.0 °F 94% 30.01 in 3.0 mi Variable 5.8 mph - 0.23 in Rain , Thunderstorm Light Thunderstorms and Rain
3:24 PM 71.6 °F 68.0 °F 88% 30.02 in 1.5 mi WSW 8.1 mph - 0.25 in Rain , Thunderstorm Thunderstorms and Rain
3:31 PM 71.6 °F 69.8 °F 94% 30.01 in 1.0 mi WSW 6.9 mph - 0.31 in Rain , Thunderstorm Thunderstorms and Rain
3:40 PM 71.6 °F 69.8 °F 94% 30.01 in 3.0 mi SW 4.6 mph - 0.32 in Rain , Thunderstorm Light Thunderstorms and Rain
3:48 PM 71.6 °F 69.8 °F 94% 29.99 in 6.0 mi SW 3.5 mph - 0.32 in Rain Light Rain
3:56 PM 72.0 °F 70.0 °F 93% 29.98 in 8.0 mi SSW 4.6 mph - 0.32 in Rain Light Rain
4:56 PM 73.0 °F 70.0 °F 90% 29.97 in 10.0 mi Calm Calm - 0.05 in   Mostly Cloudy
5:56 PM 73.9 °F 70.0 °F 87% 29.98 in 7.0 mi SSW 9.2 mph - N/A   Mostly Cloudy
6:56 PM 72.0 °F 66.9 °F 84% 29.97 in 10.0 mi SSW 11.5 mph - N/A   Mostly Cloudy
7:56 PM 71.1 °F 66.9 °F 87% 29.97 in 10.0 mi SSW 9.2 mph - 0.00 in Rain Light Rain
8:56 PM 71.1 °F 68.0 °F 90% 29.99 in 4.0 mi SSW 13.8 mph - 0.00 in Rain Rain
9:07 PM 69.8 °F 68.0 °F 94% 30.00 in 2.0 mi SSW 10.4 mph 18.4 mph 0.06 in Rain Heavy Rain
9:21 PM 69.8 °F 68.0 °F 94% 30.00 in 5.0 mi South 10.4 mph - 0.10 in Rain Light Rain
9:56 PM 70.0 °F 68.0 °F 93% 29.97 in 9.0 mi South 10.4 mph - 0.10 in   Overcast
10:45 PM 69.8 °F 68.0 °F 94% 29.96 in 7.0 mi South 11.5 mph - 0.00 in   Mostly Cloudy
10:56 PM 70.0 °F 68.0 °F 93% 29.94 in 8.0 mi South 12.7 mph - 0.00 in   Mostly Cloudy
11:38 PM 69.8 °F 68.0 °F 94% 29.95 in 10.0 mi SSW 10.4 mph - 0.00 in Rain Light Rain
11:56 PM 70.0 °F 68.0 °F 93% 29.93 in 9.0 mi South 11.5 mph - 0.00 in Rain Light Rain